contact:dominique.lefevre@mio.osupytheas.fr, maurice.libes@osupytheas.fr, didier.mallarino@osupytheas.fr
Project:EMSO http://www.emso-fr.org/EMSO-France
Depth: 2436.0 m
Title:EMSO Ligure Ouest : Data MII capteur AQUADOPP
Date,Latitude,Longitude,X_East,Y_North,Z_Up,Amplitude_X,Amplitude_Y,Amplitude_Z,Batterie,SoundSpeed,Heading,Pitch,Roll,Pressure,TIS,Speed,Direction
, degrees North, degrees East, m.s-1, m.s-1,m.s-1, 1, 1, 1, Volt, m.s-1, degree, degree, degree, dbar, degree_C, m.s-1, degree
2023-05-16T00:04:02,42.805,6.029,0.018,0.024,-0.001,102.0,102.0,101.0,13.3,1505.2,340.2,-0.8,1.9,2471.228,13.28,0.03,36.9
2023-05-16T00:07:03,42.805,6.029,0.025,0.021,-0.022,102.0,102.0,100.0,13.4,1505.2,321.0,-0.7,1.8,2471.238,13.28,0.032,50.0
2023-05-16T00:10:03,42.805,6.029,0.041,0.012,-0.041,102.0,100.0,101.0,13.3,1505.2,327.6,-0.8,1.8,2471.246,13.28,0.042,73.7
2023-05-16T00:13:03,42.805,6.029,0.015,0.004,-0.021,103.0,101.0,100.0,13.3,1505.2,343.6,-0.7,1.8,2471.171,13.29,0.015,75.1
2023-05-16T00:16:03,42.805,6.029,0.019,0.011,-0.031,103.0,101.0,100.0,13.4,1505.2,331.8,-0.8,1.8,2471.2,13.29,0.021,59.9
2023-05-16T00:19:03,42.805,6.029,0.019,0.021,-0.017,101.0,101.0,100.0,13.3,1505.2,329.2,-0.7,1.8,2471.188,13.29,0.028,42.1
2023-05-16T00:22:03,42.805,6.029,0.026,0.012,0.007,102.0,101.0,100.0,13.4,1505.2,321.2,-0.7,1.8,2471.192,13.29,0.028,65.2
2023-05-16T00:25:03,42.805,6.029,0.027,0.019,-0.007,101.0,101.0,101.0,13.4,1505.2,330.8,-0.8,1.8,2471.235,13.29,0.033,54.9
2023-05-16T00:28:03,42.805,6.029,-0.003,0.006,-0.021,101.0,101.0,100.0,13.4,1505.2,339.1,-0.8,1.8,2471.225,13.29,0.006,333.4
2023-05-16T00:31:03,42.805,6.029,0.041,-0.02,-0.03,101.0,101.0,101.0,13.4,1505.2,347.0,-0.8,1.8,2471.198,13.29,0.045,116.0
2023-05-16T00:34:03,42.805,6.029,0.017,0.012,-0.038,101.0,102.0,101.0,13.4,1505.2,319.4,-0.8,1.8,2471.216,13.29,0.02,54.8
2023-05-16T00:37:03,42.805,6.029,0.026,0.024,0.012,101.0,101.0,101.0,13.4,1505.2,319.9,-0.8,1.9,2471.212,13.29,0.035,47.3
2023-05-16T00:40:03,42.805,6.029,0.042,-0.003,-0.037,101.0,101.0,101.0,13.4,1505.2,332.9,-0.8,1.8,2471.191,13.29,0.042,94.1
2023-05-16T00:43:03,42.805,6.029,0.021,0.01,-0.031,101.0,102.0,101.0,13.3,1505.2,347.3,-0.8,1.8,2471.203,13.29,0.023,64.5
2023-05-16T00:46:03,42.805,6.029,0.0,0.022,-0.037,101.0,102.0,101.0,13.3,1505.2,323.6,-0.7,1.8,2471.227,13.29,0.022,0.0
2023-05-16T00:49:03,42.805,6.029,0.037,0.0,-0.006,101.0,102.0,101.0,13.4,1505.2,336.8,-0.8,1.8,2471.193,13.29,0.037,90.0
2023-05-16T00:52:03,42.805,6.029,0.026,0.014,-0.005,101.0,101.0,101.0,13.4,1505.2,327.0,-0.7,1.8,2471.182,13.29,0.029,61.7
2023-05-16T00:55:03,42.805,6.029,0.041,-0.012,-0.058,101.0,102.0,100.0,13.3,1505.2,340.4,-0.8,1.8,2471.193,13.29,0.042,106.3
2023-05-16T00:58:03,42.805,6.029,0.03,0.0,-0.045,101.0,101.0,100.0,13.4,1505.2,335.5,-0.8,1.8,2471.207,13.29,0.03,90.0
2023-05-16T01:04:02,42.805,6.029,0.049,0.011,-0.018,104.0,104.0,102.0,13.3,1505.2,330.2,-0.8,1.8,2471.247,13.28,0.05,77.3
2023-05-16T01:07:03,42.805,6.029,0.041,0.032,0.003,101.0,102.0,100.0,13.4,1505.2,329.4,-0.8,1.8,2471.274,13.28,0.052,52.0
2023-05-16T01:10:03,42.805,6.029,-0.001,0.015,-0.019,101.0,103.0,101.0,13.3,1505.2,322.2,-0.8,1.8,2471.294,13.28,0.015,356.2
2023-05-16T01:13:03,42.805,6.029,0.004,0.011,-0.038,101.0,103.0,100.0,13.4,1505.2,318.1,-0.8,1.8,2471.28,13.29,0.011,20.0
2023-05-16T01:16:03,42.805,6.029,0.05,0.007,-0.041,101.0,103.0,100.0,13.4,1505.2,329.4,-0.8,1.8,2471.297,13.29,0.05,82.0
2023-05-16T01:19:03,42.805,6.029,0.018,0.009,0.003,102.0,101.0,100.0,13.4,1505.2,324.1,-0.8,1.8,2471.268,13.29,0.02,63.4
2023-05-16T01:22:03,42.805,6.029,0.04,0.028,0.028,102.0,101.0,100.0,13.4,1505.2,336.0,-0.7,1.8,2471.215,13.29,0.048,55.0
2023-05-16T01:25:03,42.805,6.029,0.032,0.019,-0.007,101.0,101.0,101.0,13.4,1505.2,344.8,-0.8,1.8,2471.256,13.29,0.037,59.3
2023-05-16T01:28:03,42.805,6.029,0.039,0.019,-0.008,102.0,103.0,101.0,13.3,1505.2,327.8,-0.7,1.8,2471.233,13.29,0.043,64.0
2023-05-16T01:31:03,42.805,6.029,0.041,0.0,-0.014,101.0,102.0,100.0,13.4,1505.2,339.3,-0.7,1.8,2471.234,13.29,0.041,90.0
2023-05-16T01:34:03,42.805,6.029,0.039,0.011,-0.001,102.0,102.0,100.0,13.4,1505.2,329.9,-0.8,1.8,2471.244,13.29,0.04,74.3
2023-05-16T01:37:03,42.805,6.029,0.011,0.012,-0.029,101.0,102.0,101.0,13.4,1505.2,343.4,-0.8,1.8,2471.283,13.29,0.016,42.5
2023-05-16T01:40:03,42.805,6.029,0.062,-0.013,0.001,102.0,102.0,101.0,13.4,1505.2,340.2,-0.8,1.8,2471.251,13.29,0.063,101.8
2023-05-16T01:43:03,42.805,6.029,0.02,0.001,-0.01,102.0,102.0,101.0,13.3,1505.2,329.2,-0.7,1.8,2471.248,13.29,0.02,87.1
2023-05-16T01:46:03,42.805,6.029,0.039,0.0,-0.015,102.0,103.0,101.0,13.3,1505.2,342.1,-0.8,1.8,2471.28,13.29,0.039,90.0
2023-05-16T01:49:03,42.805,6.029,0.01,0.018,-0.02,102.0,102.0,100.0,13.4,1505.2,330.9,-0.8,1.8,2471.226,13.29,0.02,29.1
2023-05-16T01:52:03,42.805,6.029,0.033,0.01,-0.03,102.0,102.0,101.0,13.4,1505.2,333.9,-0.8,1.8,2471.291,13.29,0.034,73.1
2023-05-16T01:55:03,42.805,6.029,0.041,0.005,-0.012,101.0,100.0,102.0,13.4,1505.2,342.8,-0.8,1.8,2471.253,13.29,0.041,83.0
2023-05-16T01:58:03,42.805,6.029,0.045,0.017,-0.003,101.0,102.0,101.0,13.4,1505.2,320.1,-0.8,1.8,2471.265,13.29,0.048,69.3
2023-05-16T02:04:03,42.805,6.029,0.045,0.004,-0.027,101.0,102.0,101.0,13.4,1505.2,335.0,-0.8,1.8,2471.291,13.28,0.045,84.9
2023-05-16T02:07:03,42.805,6.029,0.015,0.021,-0.001,101.0,102.0,101.0,13.4,1505.2,326.6,-0.8,1.8,2471.304,13.28,0.025,35.5
2023-05-16T02:10:03,42.805,6.029,0.049,0.006,-0.013,101.0,101.0,100.0,13.4,1505.2,323.8,-0.8,1.8,2471.284,13.28,0.049,83.0
2023-05-16T02:13:03,42.805,6.029,0.034,-0.01,-0.036,102.0,101.0,102.0,13.3,1505.2,338.6,-0.7,1.8,2471.282,13.28,0.035,106.4
2023-05-16T02:16:03,42.805,6.029,0.059,-0.004,0.026,102.0,106.0,100.0,13.3,1505.2,343.6,-0.8,1.8,2471.263,13.29,0.059,93.9
2023-05-16T02:19:03,42.805,6.029,0.021,0.002,-0.056,101.0,103.0,100.0,13.3,1505.2,329.3,-0.8,1.8,2471.313,13.29,0.021,84.6
2023-05-16T02:22:03,42.805,6.029,0.04,-0.003,-0.046,102.0,102.0,101.0,13.3,1505.2,328.4,-0.8,1.8,2471.271,13.29,0.04,94.3
2023-05-16T02:25:03,42.805,6.029,0.029,0.013,-0.021,102.0,101.0,101.0,13.3,1505.2,329.8,-0.8,1.8,2471.29,13.29,0.031,65.9
2023-05-16T02:28:03,42.805,6.029,0.042,0.006,-0.033,102.0,102.0,101.0,13.3,1505.2,340.8,-0.8,1.8,2471.288,13.29,0.042,81.9
2023-05-16T02:31:03,42.805,6.029,0.019,0.017,-0.006,102.0,102.0,101.0,13.4,1505.2,319.8,-0.7,1.8,2471.285,13.29,0.025,48.2
2023-05-16T02:34:03,42.805,6.029,0.02,0.002,-0.025,102.0,103.0,100.0,13.4,1505.2,332.0,-0.7,1.8,2471.284,13.29,0.02,84.3
2023-05-16T02:37:03,42.805,6.029,0.001,0.015,-0.019,101.0,102.0,101.0,13.3,1505.2,326.3,-0.8,1.8,2471.283,13.29,0.015,3.8
2023-05-16T02:40:03,42.805,6.029,0.018,0.019,-0.02,103.0,101.0,101.0,13.4,1505.2,326.6,-0.8,1.8,2471.259,13.29,0.026,43.5
2023-05-16T02:43:03,42.805,6.029,0.037,0.006,-0.017,102.0,102.0,101.0,13.4,1505.2,318.3,-0.7,1.8,2471.281,13.29,0.037,80.8
2023-05-16T02:46:03,42.805,6.029,0.033,0.0,-0.023,100.0,102.0,101.0,13.4,1505.2,324.4,-0.8,1.8,2471.317,13.29,0.033,90.0
2023-05-16T02:49:03,42.805,6.029,0.041,0.0,-0.007,101.0,103.0,101.0,13.3,1505.2,334.7,-0.7,1.8,2471.3,13.29,0.041,90.0
2023-05-16T02:52:03,42.805,6.029,0.033,0.011,-0.04,102.0,101.0,102.0,13.4,1505.2,339.8,-0.8,1.8,2471.297,13.29,0.034,71.6
2023-05-16T02:55:03,42.805,6.029,0.045,-0.007,-0.025,100.0,103.0,102.0,13.4,1505.2,335.6,-0.7,1.8,2471.345,13.29,0.045,98.8
2023-05-16T02:58:03,42.805,6.029,0.039,0.016,0.015,103.0,102.0,100.0,13.4,1505.2,347.3,-0.8,1.8,2471.314,13.29,0.042,67.7
2023-05-16T03:04:03,42.805,6.029,0.037,-0.002,-0.011,101.0,101.0,101.0,13.4,1505.2,325.0,-0.8,1.8,2471.367,13.28,0.037,93.1
2023-05-16T03:07:03,42.805,6.029,0.021,-0.007,-0.038,102.0,102.0,101.0,13.4,1505.2,346.7,-0.8,1.8,2471.352,13.28,0.022,108.4
2023-05-16T03:10:03,42.805,6.029,0.042,0.009,-0.03,100.0,103.0,101.0,13.3,1505.2,322.6,-0.8,1.8,2471.341,13.28,0.042,77.9
2023-05-16T03:13:03,42.805,6.029,0.041,-0.009,-0.036,102.0,102.0,101.0,13.4,1505.2,333.4,-0.7,1.8,2471.334,13.28,0.041,102.4
2023-05-16T03:16:03,42.805,6.029,0.025,0.002,-0.015,101.0,103.0,101.0,13.3,1505.2,323.8,-0.8,1.8,2471.333,13.29,0.025,85.4
2023-05-16T03:19:03,42.805,6.029,0.039,0.01,-0.007,103.0,100.0,101.0,13.3,1505.2,335.8,-0.7,1.8,2471.336,13.29,0.04,75.6
2023-05-16T03:22:03,42.805,6.029,0.026,-0.001,-0.013,102.0,102.0,101.0,13.3,1505.2,333.4,-0.7,1.8,2471.307,13.29,0.026,92.2
2023-05-16T03:25:03,42.805,6.029,0.021,-0.011,-0.064,101.0,101.0,102.0,13.4,1505.2,343.7,-0.8,1.8,2471.339,13.29,0.023,117.6
2023-05-16T03:28:03,42.805,6.029,0.039,-0.003,-0.009,101.0,103.0,100.0,13.4,1505.2,336.8,-0.8,1.8,2471.323,13.29,0.039,94.4
2023-05-16T03:31:03,42.805,6.029,0.035,0.019,0.002,102.0,101.0,100.0,13.4,1505.2,326.3,-0.8,1.8,2471.35,13.29,0.039,61.5
2023-05-16T03:34:03,42.805,6.029,0.033,0.009,-0.022,100.0,104.0,102.0,13.4,1505.2,335.2,-0.8,1.8,2471.304,13.29,0.034,74.7
2023-05-16T03:37:03,42.805,6.029,0.021,0.016,-0.013,102.0,102.0,101.0,13.3,1505.2,344.2,-0.7,1.8,2471.343,13.29,0.026,52.7
2023-05-16T03:40:03,42.805,6.029,0.043,-0.02,-0.08,102.0,102.0,103.0,13.4,1505.2,338.4,-0.7,1.8,2471.327,13.29,0.047,114.9
2023-05-16T03:43:03,42.805,6.029,0.041,-0.025,-0.033,102.0,101.0,103.0,13.4,1505.2,345.9,-0.7,1.8,2471.352,13.29,0.048,121.4
2023-05-16T03:46:03,42.805,6.029,0.045,-0.007,-0.034,102.0,102.0,101.0,13.4,1505.2,336.0,-0.7,1.8,2471.317,13.29,0.045,98.8
2023-05-16T03:49:03,42.805,6.029,0.044,0.001,-0.009,102.0,103.0,101.0,13.4,1505.2,332.4,-0.8,1.8,2471.297,13.29,0.044,88.7
2023-05-16T03:52:03,42.805,6.029,0.038,0.006,-0.035,102.0,102.0,102.0,13.3,1505.2,345.9,-0.8,1.9,2471.317,13.29,0.038,81.0
2023-05-16T03:55:03,42.805,6.029,0.038,-0.025,-0.037,103.0,102.0,100.0,13.4,1505.2,325.1,-0.7,1.8,2471.359,13.29,0.045,123.3
2023-05-16T03:58:03,42.805,6.029,0.038,0.009,-0.003,103.0,104.0,101.0,13.4,1505.2,325.7,-0.8,1.8,2471.331,13.29,0.039,76.7
2023-05-16T04:04:03,42.805,6.029,0.029,-0.002,-0.039,102.0,100.0,101.0,13.4,1505.2,325.2,-0.8,1.8,2471.383,13.28,0.029,93.9
2023-05-16T04:07:03,42.805,6.029,0.018,0.0,-0.032,103.0,101.0,101.0,13.4,1505.2,334.3,-0.8,1.8,2471.362,13.28,0.018,90.0
2023-05-16T04:10:03,42.805,6.029,0.064,-0.018,-0.013,102.0,102.0,101.0,13.4,1505.2,336.5,-0.7,1.8,2471.36,13.28,0.066,105.7
2023-05-16T04:13:03,42.805,6.029,0.033,0.012,0.0,103.0,102.0,101.0,13.4,1505.2,326.5,-0.8,1.8,2471.357,13.29,0.035,70.0
2023-05-16T04:16:03,42.805,6.029,0.049,0.002,-0.046,103.0,103.0,101.0,13.4,1505.2,333.4,-0.8,1.8,2471.413,13.29,0.049,87.7
2023-05-16T04:19:03,42.805,6.029,0.045,0.012,0.006,101.0,102.0,102.0,13.3,1505.2,333.9,-0.7,1.8,2471.375,13.29,0.046,75.1
2023-05-16T04:22:03,42.805,6.029,0.028,-0.003,-0.017,102.0,102.0,101.0,13.4,1505.2,323.1,-0.8,1.8,2471.343,13.29,0.028,96.1
2023-05-16T04:25:03,42.805,6.029,0.04,0.006,-0.02,101.0,102.0,101.0,13.4,1505.2,336.5,-0.7,1.8,2471.367,13.29,0.04,81.5
2023-05-16T04:28:03,42.805,6.029,0.029,0.007,-0.003,101.0,103.0,101.0,13.4,1505.2,330.6,-0.8,1.8,2471.312,13.29,0.029,76.4
2023-05-16T04:31:03,42.805,6.029,0.041,-0.009,-0.025,103.0,100.0,101.0,13.4,1505.2,333.9,-0.7,1.8,2471.329,13.29,0.041,102.4
2023-05-16T04:34:03,42.805,6.029,0.022,0.002,-0.036,102.0,102.0,101.0,13.3,1505.2,327.3,-0.7,1.8,2471.357,13.29,0.022,84.8
2023-05-16T04:37:03,42.805,6.029,0.033,-0.013,-0.031,101.0,101.0,101.0,13.4,1505.2,333.4,-0.8,1.8,2471.352,13.29,0.035,111.5
2023-05-16T04:40:03,42.805,6.029,0.025,0.01,-0.016,101.0,101.0,101.0,13.4,1505.2,323.4,-0.8,1.8,2471.338,13.29,0.026,68.2
2023-05-16T04:43:03,42.805,6.029,0.044,0.011,-0.031,101.0,102.0,100.0,13.3,1505.2,319.4,-0.7,1.8,2471.369,13.29,0.045,76.0
2023-05-16T04:46:03,42.805,6.029,0.026,0.012,-0.028,102.0,102.0,101.0,13.4,1505.2,324.5,-0.7,1.8,2471.36,13.29,0.028,65.2
2023-05-16T04:49:03,42.805,6.029,0.032,-0.011,-0.023,102.0,102.0,101.0,13.4,1505.2,346.5,-0.8,1.8,2471.321,13.29,0.033,109.0
2023-05-16T04:52:03,42.805,6.029,0.038,-0.002,-0.023,102.0,100.0,101.0,13.4,1505.2,337.7,-0.8,1.8,2471.355,13.29,0.038,93.0
2023-05-16T04:55:03,42.805,6.029,0.012,0.012,-0.046,101.0,102.0,100.0,13.4,1505.2,329.0,-0.7,1.8,2471.327,13.29,0.016,45.0
2023-05-16T04:58:03,42.805,6.029,0.039,0.015,-0.012,102.0,101.0,101.0,13.4,1505.2,328.2,-0.7,1.8,2471.354,13.29,0.041,69.0
2023-05-16T05:04:02,42.805,6.029,0.02,-0.014,-0.053,101.0,102.0,100.0,13.3,1505.2,337.1,-0.8,1.8,2471.375,13.28,0.024,125.0
2023-05-16T05:07:03,42.805,6.029,0.012,0.006,-0.021,102.0,102.0,101.0,13.3,1505.2,333.9,-0.8,1.8,2471.401,13.28,0.013,63.4
2023-05-16T05:10:03,42.805,6.029,0.013,0.01,-0.014,101.0,101.0,101.0,13.3,1505.2,343.7,-0.8,1.8,2471.386,13.28,0.016,52.4
2023-05-16T05:13:03,42.805,6.029,0.027,0.013,-0.031,102.0,101.0,101.0,13.4,1505.2,321.3,-0.8,1.8,2471.364,13.28,0.029,64.3
2023-05-16T05:16:03,42.805,6.029,0.036,0.015,-0.019,101.0,101.0,101.0,13.4,1505.2,323.5,-0.8,1.8,2471.345,13.29,0.039,67.4
2023-05-16T05:19:03,42.805,6.029,0.042,0.001,-0.016,100.0,101.0,101.0,13.4,1505.2,341.5,-0.8,1.8,2471.352,13.29,0.042,88.6
2023-05-16T05:22:03,42.805,6.029,0.025,0.008,-0.043,102.0,101.0,101.0,13.4,1505.2,318.9,-0.7,1.8,2471.39,13.29,0.026,72.3
2023-05-16T05:25:03,42.805,6.029,0.042,-0.019,-0.035,101.0,102.0,101.0,13.3,1505.2,333.4,-0.8,1.8,2471.374,13.29,0.046,114.3
2023-05-16T05:28:03,42.805,6.029,0.035,-0.003,-0.039,102.0,102.0,101.0,13.3,1505.2,343.4,-0.8,1.8,2471.328,13.29,0.035,94.9
2023-05-16T05:31:03,42.805,6.029,0.031,0.006,-0.05,101.0,102.0,101.0,13.3,1505.2,320.5,-0.8,1.8,2471.366,13.29,0.031,79.0
2023-05-16T05:34:03,42.805,6.029,0.028,0.024,-0.048,103.0,102.0,101.0,13.4,1505.2,324.6,-0.8,1.8,2471.333,13.29,0.036,49.4
2023-05-16T05:37:03,42.805,6.029,0.024,0.009,-0.018,102.0,102.0,101.0,13.4,1505.2,346.8,-0.8,1.8,2471.324,13.29,0.025,69.4
2023-05-16T05:40:03,42.805,6.029,0.032,-0.003,-0.025,102.0,103.0,101.0,13.4,1505.2,324.8,-0.8,1.8,2471.329,13.29,0.032,95.4
2023-05-16T05:43:03,42.805,6.029,0.047,0.002,-0.037,102.0,101.0,101.0,13.4,1505.2,338.4,-0.8,1.8,2471.368,13.29,0.047,87.6
2023-05-16T05:46:03,42.805,6.029,0.05,-0.012,-0.031,102.0,101.0,102.0,13.4,1505.2,330.8,-0.8,1.8,2471.355,13.29,0.051,103.5
2023-05-16T05:49:03,42.805,6.029,0.028,-0.037,-0.04,101.0,102.0,102.0,13.4,1505.2,340.5,-0.7,1.8,2471.34,13.29,0.046,142.9
2023-05-16T05:52:03,42.805,6.029,0.012,0.006,-0.033,102.0,101.0,102.0,13.3,1505.2,320.3,-0.7,1.8,2471.301,13.29,0.013,63.4
2023-05-16T05:55:03,42.805,6.029,0.049,-0.006,-0.037,101.0,102.0,101.0,13.3,1505.2,331.6,-0.8,1.8,2471.35,13.29,0.049,97.0
2023-05-16T05:58:03,42.805,6.029,0.034,-0.007,-0.047,102.0,101.0,101.0,13.4,1505.2,332.1,-0.8,1.8,2471.344,13.29,0.034,101.6
2023-05-16T06:04:03,42.805,6.029,0.047,0.007,-0.034,102.0,101.0,100.0,13.4,1505.2,335.1,-0.8,1.8,2471.364,13.28,0.047,81.5
2023-05-16T06:07:03,42.805,6.029,0.028,0.006,-0.016,102.0,102.0,100.0,13.4,1505.2,323.8,-0.8,1.8,2471.377,13.28,0.028,77.9
2023-05-16T06:10:03,42.805,6.029,0.028,0.016,-0.017,102.0,102.0,100.0,13.3,1505.2,324.1,-0.8,1.8,2471.349,13.28,0.032,60.3
2023-05-16T06:13:03,42.805,6.029,0.053,0.004,0.011,102.0,102.0,100.0,13.4,1505.2,327.0,-0.8,1.8,2471.371,13.28,0.053,85.7
2023-05-16T06:16:03,42.805,6.029,-0.003,-0.002,-0.064,102.0,101.0,101.0,13.4,1505.2,328.2,-0.8,1.8,2471.368,13.29,0.003,236.3
2023-05-16T06:19:03,42.805,6.029,0.024,0.002,0.0,101.0,101.0,101.0,13.4,1505.2,342.9,-0.8,1.8,2471.376,13.29,0.024,85.2
2023-05-16T06:22:03,42.805,6.029,0.028,0.003,-0.04,101.0,101.0,101.0,13.3,1505.2,325.7,-0.8,1.8,2471.333,13.29,0.028,83.9
2023-05-16T06:25:03,42.805,6.029,0.029,-0.012,-0.044,102.0,101.0,102.0,13.4,1505.2,336.5,-0.8,1.8,2471.365,13.29,0.031,112.5
2023-05-16T06:28:03,42.805,6.029,0.024,-0.008,-0.046,101.0,102.0,101.0,13.4,1505.2,330.7,-0.7,1.8,2471.341,13.29,0.025,108.4
2023-05-16T06:31:03,42.805,6.029,0.039,-0.011,-0.033,102.0,101.0,101.0,13.3,1505.2,340.1,-0.8,1.8,2471.352,13.29,0.04,105.7
2023-05-16T06:34:03,42.805,6.029,0.008,0.006,-0.017,103.0,102.0,101.0,13.4,1505.2,319.8,-0.8,1.8,2471.329,13.29,0.01,53.1
2023-05-16T06:37:03,42.805,6.029,0.027,0.0,-0.031,102.0,102.0,100.0,13.4,1505.2,320.0,-0.8,1.8,2471.328,13.29,0.026,90.0
2023-05-16T06:40:03,42.805,6.029,0.049,-0.015,-0.025,101.0,100.0,101.0,13.3,1505.2,326.3,-0.8,1.9,2471.311,13.29,0.051,107.0
2023-05-16T06:43:03,42.805,6.029,0.044,-0.016,-0.049,102.0,101.0,101.0,13.4,1505.2,334.6,-0.8,1.8,2471.342,13.29,0.046,110.0
2023-05-16T06:46:03,42.805,6.029,0.03,0.011,-0.018,102.0,100.0,101.0,13.4,1505.2,338.6,-0.8,1.8,2471.275,13.29,0.031,69.9
2023-05-16T06:49:03,42.805,6.029,0.051,-0.002,-0.012,100.0,103.0,100.0,13.4,1505.2,342.9,-0.8,1.8,2471.325,13.29,0.051,92.2
2023-05-16T06:52:03,42.805,6.029,0.038,0.0,-0.021,100.0,103.0,100.0,13.4,1505.2,338.4,-0.8,1.8,2471.285,13.29,0.038,90.0
2023-05-16T06:55:03,42.805,6.029,0.041,0.0,-0.017,102.0,102.0,101.0,13.4,1505.2,340.0,-0.8,1.8,2471.294,13.29,0.041,90.0
2023-05-16T06:58:03,42.805,6.029,0.046,-0.004,-0.014,102.0,102.0,100.0,13.3,1505.2,321.0,-0.8,1.8,2471.308,13.29,0.046,95.0
2023-05-16T07:04:03,42.805,6.029,0.041,-0.002,-0.048,101.0,101.0,101.0,13.4,1505.2,326.0,-0.8,1.8,2471.343,13.28,0.041,92.8
2023-05-16T07:07:03,42.805,6.029,0.033,0.0,-0.033,101.0,101.0,100.0,13.4,1505.2,325.0,-0.7,1.8,2471.335,13.28,0.033,90.0
2023-05-16T07:10:03,42.805,6.029,0.033,0.007,0.013,101.0,102.0,100.0,13.4,1505.2,334.4,-0.7,1.8,2471.295,13.28,0.033,78.0
2023-05-16T07:13:03,42.805,6.029,0.045,-0.015,-0.064,102.0,102.0,100.0,13.4,1505.2,326.5,-0.7,1.8,2471.3,13.28,0.047,108.4
2023-05-16T07:16:03,42.805,6.029,0.018,0.02,-0.025,101.0,100.0,101.0,13.3,1505.2,316.9,-0.8,1.8,2471.334,13.29,0.026,42.0
2023-05-16T07:19:03,42.805,6.029,0.0,0.002,-0.049,101.0,103.0,101.0,13.4,1505.2,335.4,-0.8,1.8,2471.329,13.29,0.002,0.0
2023-05-16T07:22:03,42.805,6.029,0.037,0.0,-0.046,101.0,102.0,100.0,13.4,1505.2,327.5,-0.8,1.8,2471.303,13.29,0.037,90.0
2023-05-16T07:25:03,42.805,6.029,0.021,0.006,-0.039,101.0,102.0,100.0,13.4,1505.2,316.3,-0.8,1.8,2471.322,13.29,0.021,74.1
2023-05-16T07:28:03,42.805,6.029,0.025,0.0,-0.057,102.0,101.0,101.0,13.4,1505.2,329.6,-0.8,1.8,2471.295,13.29,0.025,90.0
2023-05-16T07:31:03,42.805,6.029,0.034,-0.004,-0.019,103.0,101.0,100.0,13.3,1505.2,341.9,-0.7,1.8,2471.274,13.29,0.034,96.7
2023-05-16T07:34:03,42.805,6.029,0.036,-0.014,-0.045,101.0,102.0,100.0,13.3,1505.2,335.9,-0.8,1.8,2471.273,13.29,0.038,111.2
2023-05-16T07:37:03,42.805,6.029,0.048,0.0,-0.011,101.0,101.0,101.0,13.3,1505.2,327.3,-0.8,1.8,2471.278,13.29,0.048,90.0
2023-05-16T07:40:03,42.805,6.029,0.023,0.006,-0.029,101.0,101.0,101.0,13.3,1505.2,344.5,-0.8,1.8,2471.263,13.29,0.023,75.4
2023-05-16T07:43:03,42.805,6.029,0.038,0.008,-0.02,102.0,101.0,101.0,13.3,1505.2,319.9,-0.8,1.8,2471.252,13.29,0.038,78.1
2023-05-16T07:46:03,42.805,6.029,0.046,-0.004,-0.042,102.0,102.0,101.0,13.4,1505.2,329.1,-0.8,1.8,2471.285,13.29,0.046,95.0
2023-05-16T07:49:03,42.805,6.029,0.032,0.003,-0.029,102.0,101.0,101.0,13.4,1505.2,332.9,-0.8,1.8,2471.272,13.29,0.032,84.6
2023-05-16T07:52:03,42.805,6.029,0.036,-0.02,-0.043,102.0,101.0,101.0,13.4,1505.2,341.5,-0.8,1.8,2471.274,13.29,0.041,119.1
2023-05-16T07:55:03,42.805,6.029,0.062,-0.022,-0.054,102.0,101.0,100.0,13.4,1505.2,325.3,-0.8,1.8,2471.266,13.29,0.065,109.5
2023-05-16T07:58:03,42.805,6.029,0.04,-0.012,-0.019,102.0,103.0,101.0,13.3,1505.2,337.2,-0.7,1.8,2471.221,13.29,0.041,106.7
2023-05-16T08:04:03,42.805,6.029,0.045,0.01,-0.034,101.0,101.0,101.0,13.4,1505.2,323.5,-0.8,1.8,2471.334,13.28,0.046,77.5
2023-05-16T08:07:03,42.805,6.029,0.03,-0.031,-0.043,102.0,103.0,100.0,13.4,1505.2,329.2,-0.8,1.8,2471.305,13.28,0.043,135.9
2023-05-16T08:10:03,42.805,6.029,0.045,0.003,-0.02,102.0,104.0,101.0,13.3,1505.2,341.9,-0.8,1.8,2471.299,13.28,0.045,86.2
2023-05-16T08:13:03,42.805,6.029,0.018,-0.011,-0.031,102.0,102.0,100.0,13.3,1505.2,325.0,-0.7,1.8,2471.308,13.28,0.021,121.4
2023-05-16T08:16:03,42.805,6.029,0.061,0.0,0.005,100.0,103.0,101.0,13.3,1505.2,332.9,-0.8,1.8,2471.269,13.29,0.06,90.0
2023-05-16T08:19:03,42.805,6.029,0.018,0.015,-0.008,102.0,103.0,101.0,13.4,1505.2,334.6,-0.8,1.8,2471.267,13.29,0.023,50.2
2023-05-16T08:22:03,42.805,6.029,0.047,0.0,-0.01,103.0,101.0,101.0,13.3,1505.2,330.8,-0.8,1.8,2471.255,13.29,0.047,90.0
2023-05-16T08:25:03,42.805,6.029,0.044,0.001,-0.021,101.0,102.0,100.0,13.3,1505.2,327.5,-0.8,1.8,2471.26,13.29,0.044,88.7
2023-05-16T08:28:03,42.805,6.029,0.04,-0.016,-0.017,101.0,102.0,102.0,13.3,1505.2,343.4,-0.8,1.8,2471.283,13.29,0.043,111.8
2023-05-16T08:31:03,42.805,6.029,0.034,-0.007,-0.028,101.0,103.0,101.0,13.4,1505.2,318.6,-0.8,1.8,2471.288,13.29,0.034,101.6
2023-05-16T08:34:03,42.805,6.029,0.046,-0.021,-0.03,102.0,102.0,101.0,13.4,1505.2,334.9,-0.7,1.8,2471.246,13.29,0.05,114.5
2023-05-16T08:37:03,42.805,6.029,0.026,0.003,-0.014,102.0,102.0,101.0,13.4,1505.2,325.2,-0.8,1.8,2471.277,13.29,0.026,83.4
2023-05-16T08:40:03,42.805,6.029,0.036,0.005,-0.007,103.0,101.0,101.0,13.4,1505.2,324.3,-0.7,1.8,2471.201,13.29,0.036,82.1
2023-05-16T08:43:03,42.805,6.029,0.041,-0.012,-0.038,101.0,103.0,101.0,13.4,1505.2,338.0,-0.8,1.8,2471.255,13.29,0.042,106.3
2023-05-16T08:46:03,42.805,6.029,0.026,0.007,-0.047,102.0,102.0,100.0,13.3,1505.2,324.1,-0.8,1.8,2471.214,13.29,0.026,74.9
2023-05-16T08:49:03,42.805,6.029,0.028,0.0,-0.054,102.0,100.0,101.0,13.4,1505.2,327.0,-0.8,1.8,2471.234,13.29,0.028,90.0
2023-05-16T08:52:03,42.805,6.029,0.027,-0.016,-0.003,102.0,101.0,101.0,13.4,1505.2,336.6,-0.8,1.8,2471.229,13.29,0.031,120.7
2023-05-16T08:55:03,42.805,6.029,0.027,0.021,-0.025,103.0,100.0,102.0,13.4,1505.2,335.1,-0.8,1.8,2471.219,13.29,0.034,52.1
2023-05-16T08:58:03,42.805,6.029,0.022,-0.004,-0.018,102.0,102.0,101.0,13.4,1505.2,331.3,-0.7,1.8,2471.245,13.29,0.022,100.3
2023-05-16T09:04:03,42.805,6.029,0.016,0.002,-0.031,100.0,103.0,101.0,13.4,1505.2,342.3,-0.8,1.8,2471.299,13.28,0.016,82.9
2023-05-16T09:07:03,42.805,6.029,0.032,0.019,0.001,102.0,102.0,101.0,13.3,1505.2,345.9,-0.8,1.8,2471.229,13.28,0.037,59.3
2023-05-16T09:10:03,42.805,6.029,0.019,0.013,-0.007,101.0,102.0,101.0,13.3,1505.2,324.6,-0.8,1.9,2471.229,13.28,0.023,55.6
2023-05-16T09:13:03,42.805,6.029,0.029,0.011,0.0,99.0,101.0,102.0,13.4,1505.2,334.9,-0.8,1.8,2471.251,13.28,0.031,69.2
2023-05-16T09:16:03,42.805,6.029,0.035,0.006,-0.031,103.0,101.0,101.0,13.3,1505.2,327.0,-0.7,1.8,2471.262,13.29,0.035,80.3
2023-05-16T09:19:03,42.805,6.029,0.014,0.001,-0.009,102.0,101.0,101.0,13.4,1505.2,345.4,-0.8,1.8,2471.213,13.29,0.014,85.9
2023-05-16T09:22:03,42.805,6.029,0.013,0.005,-0.041,101.0,102.0,101.0,13.4,1505.2,317.7,-0.7,1.8,2471.185,13.29,0.013,69.0
2023-05-16T09:25:03,42.805,6.029,0.013,-0.002,-0.041,99.0,101.0,101.0,13.4,1505.2,337.3,-0.7,1.8,2471.194,13.29,0.013,98.7
2023-05-16T09:28:03,42.805,6.029,0.047,-0.002,-0.029,102.0,103.0,99.0,13.4,1505.2,327.7,-0.8,1.8,2471.21,13.29,0.047,92.4
2023-05-16T09:31:03,42.805,6.029,0.015,0.0,-0.057,102.0,101.0,101.0,13.4,1505.2,344.8,-0.8,1.8,2471.2,13.29,0.015,90.0
2023-05-16T09:34:03,42.805,6.029,0.02,0.003,-0.034,103.0,103.0,100.0,13.4,1505.2,329.4,-0.8,1.8,2471.21,13.29,0.02,81.5
2023-05-16T09:37:03,42.805,6.029,0.018,0.012,-0.029,101.0,101.0,100.0,13.4,1505.2,325.0,-0.8,1.8,2471.197,13.29,0.021,56.3
2023-05-16T09:40:03,42.805,6.029,0.027,0.003,-0.024,104.0,101.0,100.0,13.4,1505.2,323.5,-0.8,1.8,2471.133,13.29,0.027,83.7
2023-05-16T09:43:03,42.805,6.029,0.032,-0.026,-0.033,102.0,102.0,101.0,13.4,1505.2,339.9,-0.8,1.8,2471.176,13.29,0.041,129.1
2023-05-16T09:46:03,42.805,6.029,0.045,-0.007,-0.009,102.0,101.0,101.0,13.4,1505.2,337.1,-0.8,1.8,2471.173,13.29,0.045,98.8
2023-05-16T09:49:03,42.805,6.029,0.026,-0.021,-0.026,102.0,102.0,101.0,13.3,1505.2,327.5,-0.8,1.8,2471.168,13.29,0.033,128.9
2023-05-16T09:52:03,42.805,6.029,0.031,-0.005,-0.017,101.0,104.0,102.0,13.4,1505.2,341.5,-0.8,1.8,2471.163,13.29,0.031,99.2
2023-05-16T09:55:03,42.805,6.029,0.023,-0.01,-0.027,101.0,102.0,101.0,13.4,1505.2,345.3,-0.7,1.8,2471.168,13.29,0.025,113.5
2023-05-16T09:58:03,42.805,6.029,0.025,-0.029,-0.036,101.0,102.0,100.0,13.3,1505.2,336.5,-0.7,1.8,2471.161,13.29,0.038,139.2
2023-05-16T10:01:03,42.805,6.029,0.037,-0.008,-0.022,102.0,102.0,101.0,13.4,1505.2,335.5,-0.8,1.8,2471.163,13.29,0.037,102.2